| time (UTC) | temp F | wind direction | speed knots | gust knots | rain 1hr in | rain 24hr in | rain mn in | humidity % | barometer mb |
| 20260507230512 | 65 | 65 | 1.7 | 7.0 | 0.00 | 0.00 | 0.00 | 31 | 1016.7 |
| 20260507230028 | 66 | 0 | 0.0 | 3.5 | 0.00 | 0.00 | 0.00 | 29 | 1016.7 |
| 20260507225511 | 66 | 138 | 0.0 | 3.5 | 0.00 | 0.00 | 0.00 | 29 | 1016.8 |
| 20260507225011 | 66 | 27 | 0.9 | 4.3 | 0.00 | 0.00 | 0.00 | 29 | 1016.9 |
| 20260507224532 | 66 | 51 | 0.9 | 4.3 | 0.00 | 0.00 | 0.00 | 30 | 1016.9 |
| 20260507224013 | 66 | 31 | 2.6 | 4.3 | 0.00 | 0.00 | 0.00 | 26 | 1016.7 |
| 20260507223509 | 67 | 0 | 0.0 | 4.3 | 0.00 | 0.00 | 0.00 | 29 | 1016.9 |
| 20260507223028 | 66 | 284 | 0.9 | 4.3 | 0.00 | 0.00 | 0.00 | 26 | 1017.0 |
| 20260507222511 | 66 | 31 | 0.9 | 3.5 | 0.00 | 0.00 | 0.00 | 26 | 1017.0 |
| 20260507222009 | 67 | 337 | 0.0 | 3.5 | 0.00 | 0.00 | 0.00 | 29 | 1017.1 |
| 20260507221535 | 67 | 261 | 0.0 | 4.3 | 0.00 | 0.00 | 0.00 | 28 | 1017.2 |
| 20260507221011 | 66 | 43 | 0.9 | 4.3 | 0.00 | 0.00 | 0.00 | 29 | 1017.2 |
| 20260507220510 | 66 | 13 | 0.9 | 7.8 | 0.00 | 0.00 | 0.00 | 28 | 1017.3 |
| 20260507220028 | 66 | 91 | 0.9 | 12.2 | 0.00 | 0.00 | 0.00 | 31 | 1017.3 |
| 20260507215511 | 65 | 65 | 4.3 | 12.2 | 0.00 | 0.00 | 0.00 | 29 | 1017.3 |
| 20260507215011 | 66 | 81 | 2.6 | 7.8 | 0.00 | 0.00 | 0.00 | 30 | 1017.4 |
| 20260507214531 | 67 | 79 | 1.7 | 7.0 | 0.00 | 0.00 | 0.00 | 28 | 1017.4 |
| 20260507214011 | 67 | 0 | 0.9 | 5.2 | 0.00 | 0.00 | 0.00 | 29 | 1017.3 |
| 20260507213509 | 66 | 295 | 1.7 | 5.2 | 0.00 | 0.00 | 0.00 | 31 | 1017.4 |
| 20260507213031 | 67 | 63 | 0.9 | 5.2 | 0.00 | 0.00 | 0.00 | 30 | 1017.4 |
| 20260507212511 | 66 | 279 | 1.7 | 6.1 | 0.00 | 0.00 | 0.00 | 32 | 1017.4 |
| 20260507212012 | 66 | 345 | 0.9 | 6.1 | 0.00 | 0.00 | 0.00 | 30 | 1017.6 |
| 20260507211528 | 66 | 34 | 1.7 | 6.1 | 0.00 | 0.00 | 0.00 | 29 | 1017.5 |
| 20260507211011 | 66 | 236 | 0.9 | 3.5 | 0.00 | 0.00 | 0.00 | 32 | 1017.7 |
| 20260507210511 | 66 | 53 | 1.7 | 7.0 | 0.00 | 0.00 | 0.00 | 32 | 1017.7 |
| 20260507210026 | 66 | 175 | 1.7 | 7.0 | 0.00 | 0.00 | 0.00 | 34 | 1017.8 |
| 20260507205512 | 66 | 86 | 1.7 | 5.2 | 0.00 | 0.00 | 0.00 | 35 | 1017.9 |
| 20260507205013 | 65 | 322 | 2.6 | 5.2 | 0.00 | 0.00 | 0.00 | 34 | 1017.9 |
| 20260507204526 | 66 | 294 | 2.6 | 5.2 | 0.00 | 0.00 | 0.00 | 33 | 1017.9 |
| 20260507204011 | 66 | 266 | 0.9 | 5.2 | 0.00 | 0.00 | 0.00 | 33 | 1017.9 |
| 20260507203516 | 65 | 108 | 2.6 | 5.2 | 0.00 | 0.00 | 0.00 | 33 | 1017.9 |
| 20260507203038 | 66 | 169 | 2.6 | 4.3 | 0.00 | 0.00 | 0.00 | 31 | 1018.0 |
| 20260507202513 | 65 | 64 | 0.9 | 7.0 | 0.00 | 0.00 | 0.00 | 33 | 1018.0 |
| 20260507202016 | 65 | 198 | 1.7 | 7.0 | 0.00 | 0.00 | 0.00 | 33 | 1017.9 |
| 20260507201529 | 66 | 79 | 1.7 | 8.7 | 0.00 | 0.00 | 0.00 | 34 | 1017.9 |
| 20260507201013 | 66 | 38 | 1.7 | 8.7 | 0.00 | 0.00 | 0.00 | 32 | 1017.9 |
| 20260507200513 | 66 | 59 | 2.6 | 6.1 | 0.00 | 0.00 | 0.00 | 30 | 1018.0 |
| 20260507200028 | 66 | 44 | 1.7 | 6.1 | 0.00 | 0.00 | 0.00 | 31 | 1017.8 |
| 20260507195516 | 65 | 288 | 1.7 | 6.1 | 0.00 | 0.00 | 0.00 | 34 | 1017.8 |
| 20260507195015 | 65 | 202 | 2.6 | 6.1 | 0.00 | 0.00 | 0.00 | 32 | 1017.7 |
| 20260507194529 | 64 | 288 | 2.6 | 9.6 | 0.00 | 0.00 | 0.00 | 33 | 1017.6 |
| 20260507194012 | 64 | 65 | 5.2 | 9.6 | 0.00 | 0.00 | 0.00 | 30 | 1017.6 |
| 20260507193512 | 64 | 50 | 2.6 | 7.8 | 0.00 | 0.00 | 0.00 | 34 | 1017.6 |
| 20260507193028 | 64 | 98 | 3.5 | 7.0 | 0.00 | 0.00 | 0.00 | 30 | 1017.7 |
| 20260507192509 | 64 | 18 | 3.5 | 7.0 | 0.00 | 0.00 | 0.00 | 31 | 1017.7 |
| 20260507192010 | 64 | 57 | 2.6 | 7.0 | 0.00 | 0.00 | 0.00 | 31 | 1017.7 |
| 20260507191528 | 64 | 273 | 1.7 | 6.1 | 0.00 | 0.00 | 0.00 | 33 | 1017.8 |
| 20260507191009 | 63 | 37 | 2.6 | 8.7 | 0.00 | 0.00 | 0.00 | 32 | 1017.7 |
| 20260507190512 | 63 | 79 | 0.9 | 8.7 | 0.00 | 0.00 | 0.00 | 30 | 1017.7 |
| 20260507190028 | 64 | 295 | 2.6 | 8.7 | 0.00 | 0.00 | 0.00 | 30 | 1017.8 |
| 20260507185510 | 63 | 1 | 1.7 | 6.1 | 0.00 | 0.00 | 0.00 | 32 | 1017.8 |
| 20260507185013 | 63 | 266 | 2.6 | 6.1 | 0.00 | 0.00 | 0.00 | 33 | 1017.9 |
| 20260507184529 | 63 | 281 | 1.7 | 7.0 | 0.00 | 0.00 | 0.00 | 32 | 1017.9 |
| 20260507184013 | 64 | 48 | 1.7 | 7.0 | 0.00 | 0.00 | 0.00 | 33 | 1018.2 |
| 20260507183515 | 63 | 308 | 0.9 | 7.0 | 0.00 | 0.00 | 0.00 | 37 | 1018.2 |
| 20260507183030 | 63 | 39 | 3.5 | 7.0 | 0.00 | 0.00 | 0.00 | 35 | 1018.1 |
| 20260507182513 | 62 | 314 | 2.6 | 6.1 | 0.00 | 0.00 | 0.00 | 36 | 1018.1 |
| 20260507182014 | 62 | 68 | 1.7 | 5.2 | 0.00 | 0.00 | 0.00 | 37 | 1018.3 |
| 20260507181532 | 62 | 23 | 0.9 | 5.2 | 0.00 | 0.00 | 0.00 | 40 | 1018.4 |
| 20260507181014 | 61 | 39 | 2.6 | 6.1 | 0.00 | 0.00 | 0.00 | 38 | 1018.2 |
| 20260507180512 | 61 | 48 | 2.6 | 6.1 | 0.00 | 0.00 | 0.00 | 38 | 1018.3 |
| 20260507180034 | 61 | 79 | 2.6 | 6.1 | 0.00 | 0.00 | 0.00 | 38 | 1018.3 |
| 20260507175514 | 60 | 40 | 0.9 | 5.2 | 0.00 | 0.00 | 0.00 | 38 | 1018.2 |
| 20260507175012 | 60 | 54 | 2.6 | 4.3 | 0.00 | 0.00 | 0.00 | 39 | 1018.3 |
| 20260507174528 | 60 | 44 | 1.7 | 4.3 | 0.00 | 0.00 | 0.00 | 40 | 1018.2 |
| 20260507174009 | 60 | 98 | 1.7 | 6.1 | 0.00 | 0.00 | 0.00 | 42 | 1018.4 |
| 20260507173514 | 60 | 69 | 2.6 | 6.1 | 0.00 | 0.00 | 0.00 | 41 | 1018.3 |
| 20260507173032 | 59 | 38 | 3.5 | 6.1 | 0.00 | 0.00 | 0.00 | 41 | 1018.3 |
| 20260507172513 | 59 | 58 | 2.6 | 8.7 | 0.00 | 0.00 | 0.00 | 45 | 1018.2 |
| 20260507172012 | 58 | 51 | 3.5 | 8.7 | 0.00 | 0.00 | 0.00 | 45 | 1018.3 |
| 20260507171529 | 58 | 79 | 3.5 | 6.1 | 0.00 | 0.00 | 0.00 | 45 | 1018.4 |
| 20260507171014 | 58 | 33 | 1.7 | 5.2 | 0.00 | 0.00 | 0.00 | 47 | 1018.4 |
| 20260507170511 | 57 | 68 | 1.7 | 4.3 | 0.00 | 0.00 | 0.00 | 51 | 1018.5 |
| 20260507170030 | 57 | 77 | 0.9 | 5.2 | 0.00 | 0.00 | 0.00 | 49 | 1018.4 |
| 20260507165512 | 56 | 68 | 1.7 | 5.2 | 0.00 | 0.00 | 0.00 | 53 | 1018.5 |
| 20260507165012 | 56 | 86 | 2.6 | 5.2 | 0.00 | 0.00 | 0.00 | 53 | 1018.4 |
| 20260507164534 | 56 | 71 | 1.7 | 4.3 | 0.00 | 0.00 | 0.00 | 57 | 1018.4 |
| 20260507164013 | 55 | 57 | 0.9 | 3.5 | 0.00 | 0.00 | 0.00 | 59 | 1018.4 |
| 20260507163514 | 55 | 77 | 0.9 | 2.6 | 0.00 | 0.00 | 0.00 | 62 | 1018.5 |
| 20260507163030 | 55 | 53 | 0.9 | 2.6 | 0.00 | 0.00 | 0.00 | 63 | 1018.4 |
| 20260507162512 | 55 | 29 | 0.9 | 3.5 | 0.00 | 0.00 | 0.00 | 63 | 1018.5 |
| 20260507162011 | 55 | 72 | 0.9 | 3.5 | 0.00 | 0.00 | 0.00 | 60 | 1018.5 |
| 20260507161530 | 55 | 78 | 0.0 | 3.5 | 0.00 | 0.00 | 0.00 | 63 | 1018.6 |
| 20260507161013 | 55 | 0 | 0.9 | 3.5 | 0.00 | 0.00 | 0.00 | 62 | 1018.5 |
| 20260507160511 | 54 | 36 | 0.0 | 2.6 | 0.00 | 0.00 | 0.00 | 64 | 1018.6 |
| 20260507160028 | 54 | 53 | 1.7 | 2.6 | 0.00 | 0.00 | 0.00 | 65 | 1018.6 |
| 20260507155512 | 54 | 49 | 0.9 | 1.7 | 0.00 | 0.00 | 0.00 | 65 | 1018.5 |
| 20260507155010 | 53 | 0 | 0.9 | 1.7 | 0.00 | 0.00 | 0.00 | 64 | 1018.5 |
| 20260507154531 | 54 | 61 | 0.9 | 1.7 | 0.00 | 0.00 | 0.00 | 66 | 1018.5 |
| 20260507154017 | 53 | 73 | 0.9 | 1.7 | 0.00 | 0.00 | 0.00 | 68 | 1018.5 |
| 20260507153512 | 53 | 353 | 0.0 | 2.6 | 0.00 | 0.00 | 0.00 | 68 | 1018.6 |
| 20260507153027 | 53 | 0 | 0.0 | 2.6 | 0.00 | 0.00 | 0.00 | 67 | 1018.6 |
| 20260507152513 | 53 | 82 | 0.9 | 2.6 | 0.00 | 0.00 | 0.00 | 68 | 1018.6 |
| 20260507152012 | 53 | 61 | 0.9 | 2.6 | 0.00 | 0.00 | 0.00 | 69 | 1018.6 |
| 20260507151528 | 52 | 93 | 0.9 | 1.7 | 0.00 | 0.00 | 0.00 | 70 | 1018.5 |
| 20260507151011 | 51 | 62 | 0.9 | 1.7 | 0.00 | 0.00 | 0.00 | 73 | 1018.5 |
| 20260507150513 | 51 | 72 | 0.9 | 2.6 | 0.00 | 0.00 | 0.00 | 74 | 1018.4 |
| 20260507150028 | 50 | 72 | 0.9 | 2.6 | 0.00 | 0.00 | 0.00 | 75 | 1018.3 |
| 20260507145516 | 50 | 71 | 0.9 | 2.6 | 0.00 | 0.00 | 0.00 | 75 | 1018.3 |
| 20260507145012 | 50 | 58 | 0.0 | 1.7 | 0.00 | 0.00 | 0.00 | 75 | 1018.2 |
| 20260507144533 | 50 | 68 | 0.9 | 1.7 | 0.00 | 0.00 | 0.00 | 75 | 1018.2 |
| 20260507144013 | 49 | 47 | 0.0 | 2.6 | 0.00 | 0.00 | 0.00 | 75 | 1018.3 |
| 20260507143512 | 49 | 61 | 0.9 | 2.6 | 0.00 | 0.00 | 0.00 | 76 | 1018.2 |
| 20260507143035 | 49 | 68 | 0.9 | 2.6 | 0.00 | 0.00 | 0.00 | 76 | 1018.2 |
| 20260507142512 | 49 | 72 | 0.0 | 1.7 | 0.00 | 0.00 | 0.00 | 77 | 1018.2 |
| 20260507142017 | 49 | 58 | 0.9 | 1.7 | 0.00 | 0.00 | 0.00 | 77 | 1018.1 |
| 20260507141531 | 49 | 29 | 0.9 | 1.7 | 0.00 | 0.00 | 0.00 | 76 | 1018.1 |
| 20260507141011 | 48 | 58 | 0.0 | 0.9 | 0.00 | 0.00 | 0.00 | 76 | 1018.1 |
| 20260507140513 | 48 | 68 | 0.0 | 1.7 | 0.00 | 0.00 | 0.00 | 76 | 1018.0 |
| 20260507140030 | 47 | 0 | 0.0 | 1.7 | 0.00 | 0.00 | 0.00 | 77 | 1018.1 |
| 20260507135513 | 47 | 83 | 0.0 | 1.7 | 0.00 | 0.00 | 0.00 | 78 | 1018.0 |
| 20260507135013 | 46 | 104 | 0.0 | 0.9 | 0.00 | 0.00 | 0.00 | 79 | 1018.1 |
| 20260507134532 | 45 | 35 | 0.0 | 0.9 | 0.00 | 0.00 | 0.00 | 80 | 1018.0 |
| 20260507134014 | 44 | 0 | 0.0 | 0.9 | 0.00 | 0.00 | 0.00 | 82 | 1018.0 |
| 20260507133514 | 43 | 19 | 0.0 | 0.9 | 0.00 | 0.00 | 0.00 | 83 | 1018.0 |
| 20260507133028 | 43 | 14 | 0.0 | 0.9 | 0.00 | 0.00 | 0.00 | 84 | 1018.0 |
| 20260507132512 | 43 | 0 | 0.0 | 0.9 | 0.00 | 0.00 | 0.00 | 83 | 1018.1 |
| 20260507132013 | 42 | 350 | 0.0 | 0.9 | 0.00 | 0.00 | 0.00 | 84 | 1018.0 |
| 20260507131534 | 42 | 0 | 0.0 | 0.9 | 0.00 | 0.00 | 0.00 | 84 | 1017.9 |
| 20260507131014 | 42 | 0 | 0.0 | 0.9 | 0.00 | 0.00 | 0.00 | 81 | 1017.9 |
| 20260507130509 | 42 | 0 | 0.0 | 0.9 | 0.00 | 0.00 | 0.00 | 79 | 1017.9 |
| 20260507130029 | 42 | 267 | 0.0 | 0.0 | 0.00 | 0.00 | 0.00 | 78 | 1017.9 |
| 20260507125514 | 42 | 0 | 0.0 | 0.9 | 0.00 | 0.00 | 0.00 | 79 | 1017.9 |
| 20260507125012 | 42 | 267 | 0.0 | 0.9 | 0.00 | 0.00 | 0.00 | 80 | 1017.9 |
| 20260507124532 | 42 | 0 | 0.0 | 0.9 | 0.00 | 0.00 | 0.00 | 84 | 1017.9 |
| 20260507124011 | 42 | 78 | 0.0 | 0.9 | 0.00 | 0.00 | 0.00 | 83 | 1017.9 |
| 20260507123515 | 42 | 274 | 0.0 | 0.9 | 0.00 | 0.00 | 0.00 | 80 | 1018.0 |
| 20260507123029 | 42 | 274 | 0.0 | 0.9 | 0.00 | 0.00 | 0.00 | 81 | 1018.0 |
| 20260507122515 | 42 | 0 | 0.0 | 0.9 | 0.00 | 0.00 | 0.00 | 79 | 1018.1 |
| 20260507122017 | 42 | 0 | 0.0 | 0.9 | 0.00 | 0.00 | 0.00 | 79 | 1018.0 |
| 20260507121531 | 43 | 274 | 0.0 | 0.9 | 0.00 | 0.00 | 0.00 | 79 | 1017.9 |
| 20260507121013 | 42 | 271 | 0.0 | 0.9 | 0.00 | 0.00 | 0.00 | 78 | 1017.9 |
| 20260507120512 | 42 | 321 | 0.0 | 0.9 | 0.00 | 0.00 | 0.00 | 79 | 1018.0 |
| 20260507120028 | 43 | 0 | 0.0 | 0.9 | 0.00 | 0.00 | 0.00 | 81 | 1017.8 |
| 20260507115510 | 43 | 221 | 0.0 | 0.9 | 0.00 | 0.00 | 0.00 | 78 | 1017.8 |
| 20260507115012 | 43 | 275 | 0.0 | 0.9 | 0.00 | 0.00 | 0.00 | 77 | 1017.9 |
| 20260507114532 | 43 | 0 | 0.0 | 0.9 | 0.00 | 0.00 | 0.00 | 77 | 1017.7 |
| 20260507114010 | 44 | 271 | 0.0 | 0.9 | 0.00 | 0.00 | 0.00 | 76 | 1017.7 |
| 20260507113515 | 44 | 0 | 0.0 | 0.9 | 0.00 | 0.00 | 0.00 | 76 | 1017.9 |
| 20260507113028 | 44 | 271 | 0.0 | 0.0 | 0.00 | 0.00 | 0.00 | 76 | 1017.8 |
| 20260507112518 | 44 | 271 | 0.0 | 0.0 | 0.00 | 0.00 | 0.00 | 76 | 1017.6 |
| 20260507112013 | 44 | 0 | 0.0 | 0.0 | 0.00 | 0.00 | 0.00 | 78 | 1017.6 |
| 20260507111531 | 44 | 0 | 0.0 | 0.0 | 0.00 | 0.00 | 0.00 | 81 | 1017.6 |
| 20260507111010 | 45 | 0 | 0.0 | 0.9 | 0.00 | 0.00 | 0.00 | 78 | 1017.6 |
| 20260507110512 | 45 | 0 | 0.0 | 0.9 | 0.00 | 0.00 | 0.00 | 77 | 1017.7 |
| 20260507110031 | 45 | 0 | 0.0 | 0.9 | 0.00 | 0.00 | 0.00 | 76 | 1017.8 |
| 20260507105512 | 45 | 271 | 0.0 | 0.9 | 0.00 | 0.00 | 0.00 | 75 | 1017.8 |
| 20260507105012 | 45 | 271 | 0.0 | 0.9 | 0.00 | 0.00 | 0.00 | 75 | 1017.8 |
| 20260507104531 | 45 | 271 | 0.0 | 0.9 | 0.00 | 0.00 | 0.00 | 75 | 1017.6 |
| 20260507103512 | 46 | 0 | 0.0 | 0.0 | 0.00 | 0.00 | 0.00 | 77 | 1017.5 |
| 20260507102509 | 46 | 0 | 0.0 | 0.0 | 0.00 | 0.00 | 0.00 | 76 | 1017.6 |
| 20260507102013 | 46 | 0 | 0.0 | 0.0 | 0.00 | 0.00 | 0.00 | 76 | 1017.6 |
| 20260507101015 | 46 | 0 | 0.0 | 0.0 | 0.00 | 0.00 | 0.00 | 76 | 1017.6 |
| 20260507100512 | 46 | 0 | 0.0 | 0.0 | 0.00 | 0.00 | 0.00 | 76 | 1017.6 |
| 20260507100034 | 47 | 0 | 0.0 | 0.0 | 0.00 | 0.00 | 0.00 | 76 | 1017.7 |
| 20260507095510 | 47 | 0 | 0.0 | 0.0 | 0.00 | 0.00 | 0.00 | 73 | 1017.9 |
| 20260507095013 | 47 | 0 | 0.0 | 0.0 | 0.00 | 0.00 | 0.00 | 74 | 1017.9 |
| 20260507094531 | 47 | 0 | 0.0 | 0.0 | 0.00 | 0.00 | 0.00 | 74 | 1018.0 |
| 20260507094012 | 47 | 0 | 0.0 | 0.9 | 0.00 | 0.00 | 0.00 | 73 | 1017.9 |
| 20260507093515 | 47 | 0 | 0.0 | 0.9 | 0.00 | 0.00 | 0.00 | 73 | 1017.9 |
| 20260507093030 | 47 | 271 | 0.0 | 0.9 | 0.00 | 0.00 | 0.00 | 73 | 1017.9 |
| 20260507092509 | 47 | 271 | 0.0 | 0.9 | 0.00 | 0.00 | 0.00 | 72 | 1017.9 |
| 20260507092009 | 47 | 0 | 0.0 | 0.9 | 0.00 | 0.00 | 0.00 | 72 | 1017.9 |
| 20260507091013 | 47 | 0 | 0.0 | 0.9 | 0.00 | 0.00 | 0.00 | 73 | 1017.9 |
| 20260507090514 | 47 | 0 | 0.0 | 0.9 | 0.00 | 0.00 | 0.00 | 76 | 1018.0 |
| 20260507085513 | 47 | 0 | 0.0 | 0.0 | 0.00 | 0.00 | 0.00 | 72 | 1017.9 |
| 20260507085013 | 47 | 0 | 0.0 | 0.0 | 0.00 | 0.00 | 0.00 | 72 | 1017.8 |
| 20260507084532 | 47 | 271 | 0.0 | 0.9 | 0.00 | 0.00 | 0.00 | 72 | 1017.9 |
| 20260507084010 | 47 | 271 | 0.0 | 0.9 | 0.00 | 0.00 | 0.00 | 71 | 1018.1 |
| 20260507083512 | 47 | 271 | 0.9 | 0.9 | 0.00 | 0.00 | 0.00 | 71 | 1018.1 |
| 20260507083032 | 47 | 0 | 0.0 | 0.9 | 0.00 | 0.00 | 0.00 | 73 | 1018.1 |
| 20260507082510 | 47 | 271 | 0.0 | 0.9 | 0.00 | 0.00 | 0.00 | 71 | 1018.0 |
| 20260507082010 | 48 | 0 | 0.0 | 0.9 | 0.00 | 0.00 | 0.00 | 72 | 1018.0 |
| 20260507081530 | 47 | 0 | 0.0 | 0.9 | 0.00 | 0.00 | 0.00 | 72 | 1018.2 |
| 20260507081010 | 47 | 271 | 0.0 | 0.9 | 0.00 | 0.00 | 0.00 | 72 | 1018.2 |
| 20260507080511 | 47 | 0 | 0.0 | 0.0 | 0.00 | 0.00 | 0.00 | 72 | 1018.3 |
| 20260507080029 | 47 | 0 | 0.0 | 0.0 | 0.00 | 0.00 | 0.00 | 72 | 1018.3 |
| 20260507075517 | 48 | 0 | 0.0 | 0.9 | 0.00 | 0.00 | 0.00 | 71 | 1018.2 |
| 20260507075014 | 48 | 0 | 0.0 | 0.9 | 0.00 | 0.00 | 0.00 | 71 | 1018.0 |
| 20260507074528 | 48 | 271 | 0.0 | 0.9 | 0.00 | 0.00 | 0.00 | 70 | 1017.9 |
| 20260507074012 | 48 | 271 | 0.0 | 0.9 | 0.00 | 0.00 | 0.00 | 70 | 1018.0 |
| 20260507073511 | 48 | 271 | 0.0 | 0.9 | 0.00 | 0.00 | 0.00 | 70 | 1018.0 |
| 20260507073031 | 48 | 271 | 0.9 | 0.9 | 0.00 | 0.00 | 0.00 | 70 | 1018.1 |
| 20260507072516 | 48 | 271 | 0.9 | 0.9 | 0.00 | 0.00 | 0.00 | 69 | 1018.1 |
| 20260507072012 | 48 | 0 | 0.0 | 0.9 | 0.00 | 0.00 | 0.00 | 70 | 1018.1 |
| 20260507071528 | 48 | 0 | 0.0 | 0.9 | 0.00 | 0.00 | 0.00 | 69 | 1018.1 |
| 20260507071014 | 49 | 271 | 0.0 | 0.9 | 0.00 | 0.00 | 0.00 | 69 | 1018.2 |
| 20260507070512 | 49 | 271 | 0.0 | 0.9 | 0.00 | 0.00 | 0.00 | 69 | 1018.3 |
| 20260507070031 | 49 | 271 | 0.0 | 0.9 | 0.00 | 0.00 | 0.00 | 68 | 1018.3 |
| 20260507065511 | 49 | 0 | 0.0 | 0.9 | 0.00 | 0.00 | 0.00 | 68 | 1018.3 |
| 20260507065010 | 49 | 271 | 0.0 | 0.9 | 0.00 | 0.00 | 0.00 | 68 | 1018.4 |
| 20260507064527 | 49 | 0 | 0.0 | 0.9 | 0.00 | 0.00 | 0.00 | 68 | 1018.4 |
| 20260507064011 | 49 | 0 | 0.0 | 0.9 | 0.00 | 0.00 | 0.00 | 68 | 1018.4 |
| 20260507063514 | 50 | 271 | 0.0 | 0.9 | 0.00 | 0.00 | 0.00 | 67 | 1018.4 |
| 20260507063026 | 50 | 271 | 0.9 | 0.9 | 0.00 | 0.00 | 0.00 | 67 | 1018.3 |
| 20260507062510 | 50 | 271 | 0.9 | 0.9 | 0.00 | 0.00 | 0.00 | 67 | 1018.4 |
| 20260507062012 | 50 | 271 | 0.0 | 0.9 | 0.00 | 0.00 | 0.00 | 67 | 1018.5 |
| 20260507061531 | 50 | 271 | 0.0 | 0.9 | 0.00 | 0.00 | 0.00 | 68 | 1018.6 |
| 20260507061014 | 50 | 271 | 0.0 | 0.9 | 0.00 | 0.00 | 0.00 | 68 | 1018.6 |
| 20260507060513 | 50 | 271 | 0.0 | 0.9 | 0.00 | 0.00 | 0.00 | 68 | 1018.5 |
| 20260507060030 | 50 | 271 | 0.0 | 0.9 | 0.00 | 0.00 | 0.00 | 68 | 1018.6 |
| 20260507055510 | 50 | 271 | 0.0 | 0.9 | 0.00 | 0.00 | 0.00 | 68 | 1018.5 |
| 20260507055014 | 50 | 271 | 0.0 | 0.9 | 0.00 | 0.00 | 0.00 | 68 | 1018.6 |
| 20260507054535 | 50 | 271 | 0.0 | 0.9 | 0.00 | 0.00 | 0.00 | 67 | 1018.6 |
| 20260507054016 | 50 | 271 | 0.0 | 0.9 | 0.00 | 0.00 | 0.00 | 67 | 1018.6 |
| 20260507053512 | 50 | 270 | 0.0 | 0.9 | 0.00 | 0.00 | 0.00 | 67 | 1018.6 |
| 20260507053030 | 50 | 270 | 0.9 | 0.9 | 0.00 | 0.00 | 0.00 | 67 | 1018.6 |
| 20260507052509 | 51 | 270 | 0.0 | 0.9 | 0.00 | 0.00 | 0.00 | 67 | 1018.6 |
| 20260507052013 | 51 | 0 | 0.0 | 0.9 | 0.00 | 0.00 | 0.00 | 67 | 1018.7 |
| 20260507051531 | 51 | 270 | 0.0 | 0.9 | 0.00 | 0.00 | 0.00 | 67 | 1018.7 |
| 20260507051011 | 51 | 270 | 0.9 | 0.9 | 0.00 | 0.00 | 0.00 | 67 | 1018.7 |
| 20260507050510 | 51 | 0 | 0.0 | 0.9 | 0.00 | 0.00 | 0.00 | 67 | 1018.9 |
| 20260507050029 | 51 | 0 | 0.0 | 0.9 | 0.00 | 0.00 | 0.00 | 66 | 1018.9 |
| 20260507045513 | 51 | 271 | 0.9 | 0.9 | 0.00 | 0.00 | 0.00 | 66 | 1018.8 |
| 20260507045012 | 51 | 265 | 0.0 | 0.9 | 0.00 | 0.00 | 0.00 | 66 | 1018.6 |
| 20260507044530 | 51 | 269 | 0.0 | 0.9 | 0.00 | 0.00 | 0.00 | 66 | 1018.6 |
| 20260507044012 | 51 | 269 | 0.0 | 0.9 | 0.00 | 0.00 | 0.00 | 66 | 1018.6 |
| 20260507043513 | 51 | 267 | 0.9 | 0.9 | 0.00 | 0.00 | 0.00 | 65 | 1018.6 |
| 20260507043027 | 51 | 270 | 0.0 | 0.9 | 0.00 | 0.00 | 0.00 | 66 | 1018.6 |
| 20260507042510 | 51 | 269 | 0.0 | 0.9 | 0.00 | 0.00 | 0.00 | 65 | 1018.6 |
| 20260507042012 | 51 | 264 | 0.0 | 0.9 | 0.00 | 0.00 | 0.00 | 66 | 1018.6 |
| 20260507041528 | 51 | 263 | 0.9 | 1.7 | 0.00 | 0.00 | 0.00 | 65 | 1018.5 |
| 20260507041013 | 51 | 269 | 0.0 | 1.7 | 0.00 | 0.00 | 0.00 | 65 | 1018.5 |
| 20260507040512 | 51 | 273 | 0.9 | 1.7 | 0.00 | 0.00 | 0.00 | 65 | 1018.5 |
| 20260507040026 | 52 | 273 | 0.0 | 0.9 | 0.00 | 0.00 | 0.00 | 65 | 1018.5 |
| 20260507035512 | 51 | 259 | 0.0 | 0.9 | 0.00 | 0.00 | 0.00 | 65 | 1018.5 |
| 20260507035014 | 51 | 272 | 0.0 | 0.9 | 0.00 | 0.00 | 0.00 | 65 | 1018.5 |
| 20260507034530 | 51 | 272 | 0.0 | 0.9 | 0.00 | 0.00 | 0.00 | 65 | 1018.5 |
| 20260507034010 | 52 | 272 | 0.0 | 1.7 | 0.00 | 0.00 | 0.00 | 64 | 1018.4 |
| 20260507033514 | 52 | 0 | 0.0 | 1.7 | 0.00 | 0.00 | 0.00 | 65 | 1018.4 |
| 20260507033030 | 52 | 262 | 0.9 | 1.7 | 0.00 | 0.00 | 0.00 | 64 | 1018.2 |
| 20260507032512 | 52 | 266 | 0.0 | 0.9 | 0.00 | 0.00 | 0.00 | 64 | 1018.2 |
| 20260507032015 | 52 | 265 | 0.0 | 0.9 | 0.00 | 0.00 | 0.00 | 64 | 1018.2 |
| 20260507031530 | 52 | 270 | 0.0 | 0.9 | 0.00 | 0.00 | 0.00 | 64 | 1018.2 |
| 20260507031012 | 53 | 271 | 0.0 | 0.9 | 0.00 | 0.00 | 0.00 | 63 | 1018.2 |
| 20260507030512 | 53 | 271 | 0.9 | 1.7 | 0.00 | 0.00 | 0.00 | 62 | 1018.2 |
| 20260507030031 | 54 | 269 | 0.9 | 1.7 | 0.00 | 0.00 | 0.00 | 62 | 1018.2 |
| 20260507025512 | 54 | 265 | 0.9 | 0.9 | 0.00 | 0.00 | 0.00 | 62 | 1018.3 |
| 20260507025012 | 54 | 267 | 0.9 | 0.9 | 0.00 | 0.00 | 0.00 | 62 | 1018.3 |
| 20260507024528 | 55 | 267 | 0.0 | 0.9 | 0.00 | 0.00 | 0.00 | 61 | 1018.3 |
| 20260507024015 | 55 | 267 | 0.9 | 0.9 | 0.00 | 0.00 | 0.00 | 60 | 1018.3 |
| 20260507023512 | 56 | 263 | 0.9 | 0.9 | 0.00 | 0.00 | 0.00 | 62 | 1018.3 |
| 20260507023026 | 56 | 263 | 0.9 | 0.9 | 0.00 | 0.00 | 0.00 | 61 | 1018.4 |
| 20260507022510 | 57 | 262 | 0.0 | 0.9 | 0.00 | 0.00 | 0.00 | 61 | 1018.3 |
| 20260507022011 | 57 | 250 | 0.0 | 0.9 | 0.00 | 0.00 | 0.00 | 60 | 1018.3 |
| 20260507021530 | 58 | 250 | 0.0 | 0.9 | 0.00 | 0.00 | 0.00 | 59 | 1018.3 |
| 20260507021012 | 58 | 250 | 0.0 | 0.9 | 0.00 | 0.00 | 0.00 | 57 | 1018.2 |
| 20260507020512 | 59 | 0 | 0.0 | 0.9 | 0.00 | 0.00 | 0.00 | 57 | 1018.1 |
| 20260507020036 | 59 | 0 | 0.0 | 0.9 | 0.00 | 0.00 | 0.00 | 53 | 1018.0 |
| 20260507015512 | 60 | 0 | 0.0 | 1.7 | 0.00 | 0.00 | 0.00 | 52 | 1018.0 |
| 20260507015012 | 60 | 0 | 0.0 | 1.7 | 0.00 | 0.00 | 0.00 | 51 | 1017.9 |
| 20260507014531 | 60 | 0 | 0.0 | 0.9 | 0.00 | 0.00 | 0.00 | 53 | 1017.9 |
| 20260507014012 | 61 | 0 | 0.0 | 2.6 | 0.00 | 0.00 | 0.00 | 48 | 1018.0 |
| 20260507013512 | 61 | 0 | 0.0 | 2.6 | 0.00 | 0.00 | 0.00 | 48 | 1017.9 |
| 20260507013042 | 62 | 0 | 0.9 | 2.6 | 0.00 | 0.00 | 0.00 | 47 | 1017.9 |
| 20260507012010 | 62 | 0 | 0.0 | 2.6 | 0.00 | 0.00 | 0.00 | 46 | 1018.0 |
| 20260507011532 | 62 | 146 | 0.0 | 1.7 | 0.00 | 0.00 | 0.00 | 48 | 1018.2 |
| 20260507011012 | 62 | 0 | 0.0 | 1.7 | 0.00 | 0.00 | 0.00 | 46 | 1018.3 |
| 20260507010512 | 62 | 0 | 0.0 | 2.6 | 0.00 | 0.00 | 0.00 | 45 | 1018.2 |
| 20260507010035 | 62 | 358 | 0.0 | 2.6 | 0.00 | 0.00 | 0.00 | 48 | 1018.3 |
| 20260507005513 | 62 | 0 | 0.0 | 2.6 | 0.00 | 0.00 | 0.00 | 44 | 1018.2 |
| 20260507005012 | 62 | 253 | 0.0 | 1.7 | 0.00 | 0.00 | 0.00 | 44 | 1018.4 |
| 20260507004529 | 63 | 146 | 0.0 | 2.6 | 0.00 | 0.00 | 0.00 | 45 | 1018.3 |
| 20260507004011 | 63 | 75 | 0.0 | 2.6 | 0.00 | 0.00 | 0.00 | 43 | 1018.4 |
| 20260507003511 | 63 | 150 | 0.0 | 2.6 | 0.00 | 0.00 | 0.00 | 43 | 1018.4 |
| 20260507003038 | 63 | 321 | 0.9 | 3.5 | 0.00 | 0.00 | 0.00 | 43 | 1018.4 |
| 20260507002515 | 63 | 0 | 0.0 | 3.5 | 0.00 | 0.00 | 0.00 | 43 | 1018.4 |
| 20260507001533 | 63 | 77 | 0.9 | 3.5 | 0.00 | 0.00 | 0.00 | 43 | 1018.5 |
| 20260507001010 | 63 | 326 | 0.0 | 2.6 | 0.00 | 0.00 | 0.00 | 43 | 1018.6 |
| 20260507000512 | 63 | 84 | 0.0 | 4.3 | 0.00 | 0.00 | 0.00 | 43 | 1018.6 |
| 20260507000033 | 63 | 324 | 0.9 | 5.2 | 0.00 | 0.00 | 0.00 | 41 | 1018.6 |
| 20260506235509 | 63 | 52 | 0.0 | 5.2 | 0.00 | 0.00 | 0.00 | 43 | 1018.6 |
| 20260506235009 | 63 | 353 | 0.9 | 5.2 | 0.00 | 0.00 | 0.00 | 41 | 1018.6 |
| 20260506234528 | 63 | 0 | 0.0 | 5.2 | 0.00 | 0.00 | 0.00 | 42 | 1018.6 |
| 20260506234012 | 63 | 28 | 0.9 | 7.0 | 0.00 | 0.00 | 0.00 | 41 | 1018.6 |
| 20260506233510 | 63 | 6 | 1.7 | 7.0 | 0.00 | 0.00 | 0.00 | 41 | 1018.7 |
| 20260506233028 | 64 | 57 | 0.9 | 12.2 | 0.00 | 0.00 | 0.00 | 40 | 1018.7 |
| 20260506232511 | 64 | 19 | 3.5 | 12.2 | 0.00 | 0.00 | 0.00 | 40 | 1018.9 |
| 20260506231528 | 64 | 290 | 0.9 | 10.4 | 0.00 | 0.00 | 0.00 | 39 | 1018.6 |
| 20260506231011 | 65 | 39 | 1.7 | 10.4 | 0.00 | 0.00 | 0.00 | 39 | 1018.5 |